This is the latest recevied weather packets stored in our database for station/object W4EDL-13. If no packets are shown the sender has not sent any weather packets the latest 10 day(s).
| Time | Temp. | Humidity | Pressure | Rain* | Wind** | Luminosity | Snow |
|---|---|---|---|---|---|---|---|
| 1778027374 | 22.78° C | 65% | 1006.3 hPa | - | - | - | - |
| 1778026772 | 23.33° C | 63% | 1006.3 hPa | - | - | - | - |
| 1778026171 | 23.33° C | 61% | 1006.3 hPa | - | - | - | - |
| 1778025571 | 23.33° C | 60% | 1006.3 hPa | - | - | - | - |
| 1778024971 | 23.89° C | 61% | 1006.3 hPa | - | - | - | - |
| 1778024970 | 23.89° C | 61% | 1006.3 hPa | - | - | - | - |
| 1778024370 | 24.44° C | 59% | 1006.3 hPa | - | - | - | - |
| 1778023769 | 24.44° C | 58% | 1006.3 hPa | - | - | - | - |
| 1778023168 | 24.44° C | 54% | 1006.3 hPa | - | - | - | - |
| 1778022568 | 25° C | 50% | 1006.3 hPa | - | - | - | - |
| 1778021967 | 25.56° C | 48% | 1005.9 hPa | - | - | - | - |
| 1778021367 | 25.56° C | 50% | 1005.9 hPa | - | - | - | - |
| 1778020766 | 25.56° C | 49% | 1006.3 hPa | - | - | - | - |
| 1778020166 | 27.22° C | 47% | 1006.3 hPa | - | - | - | - |
| 1778019565 | 26.67° C | 48% | 1006.3 hPa | - | - | - | - |
| 1778018964 | 27.22° C | 48% | 1006.3 hPa | - | - | - | - |
| 1778018364 | 27.78° C | 46% | 1006.3 hPa | - | - | - | - |
| 1778017763 | 27.78° C | 44% | 1006.3 hPa | - | - | - | - |
| 1778017163 | 28.33° C | 41% | 1006.3 hPa | - | - | - | - |
| 1778016562 | 29.44° C | 42% | 1006.3 hPa | - | - | - | - |
| 1778015962 | 28.89° C | 44% | 1005.9 hPa | - | - | - | - |
| 1778015361 | 28.89° C | 44% | 1005.9 hPa | - | - | - | - |
| 1778014760 | 29.44° C | 43% | 1006.3 hPa | - | - | - | - |
| 1778014160 | 28.33° C | 43% | 1006.3 hPa | - | - | - | - |
| 1778013559 | 28.33° C | 41% | 1006.3 hPa | - | - | - | - |
* Rain since midnight (hover to see other rain measurements)
** Current wind speed in m/s (hover to see current wind gust speed)